World > North America > United States > Arkansas

Cammack Village, Arkansas Regional Weather

Lat: 34.78N, Lon: 92.35W
Wx Zone: ARZ044
Feedback

Cammack Village, AR Regional Weather

Expires:202006011000;;079728
ASUS44 KLZK 010903
RWRLZK

WEATHER ROUNDUP FOR ARKANSAS
NATIONAL WEATHER SERVICE LITTLE ROCK AR
400 AM CDT MON JUN 01 2020

NOTE: "FAIR" INDICATES FEW OR NO CLOUDS BELOW 12,000 FEET WITH NO
SIGNIFICANT WEATHER AND/OR OBSTRUCTIONS TO VISIBILITY.


ARZ022-023-033-042-044-011000-
CENTRAL ARKANSAS
  
CITY           SKY/WX    TMP DP  RH WIND       PRES   REMARKS
LITTLE ROCK    MOCLDY    65  57  75 E3        30.18R                  
BENTON         SUNNY     63  57  82 CALM      30.17S                  
JACKSONVILLE   CLEAR     59  58  94 CALM      30.17S                  
CONWAY         MOSUNNY   63  61  94 CALM      30.17S                  
SEARCY         MOCLDY    62  59  90 N3        30.19S                  
HOT SPRINGS    PTCLDY    61  57  87 CALM      30.18S                  
RUSSELLVILLE   CLEAR     59  58  96 CALM      30.18S                  
CLINTON        FAIR      57  55  94 CALM      30.20S                  
$$


SKY/WX - Weather  TMP - Temperature  DP - Dew Point  RH - Relative Humidity
WIND - Wind Direction/Speed PRES - Barometric Pressure VSB - Visibility
WCI - Wind Chill Index E13G22 Wind - East Wind 13 mph/Gusts of 22 mph
Cammack Village Weather Map
UTC Time: 6/1/2020, 09:59
Your Time: